Date String (YYYY-MM-DD hh:mm:ss) UTC,Instrument flags,Ambient pressure (hPa),Sample flow (lpm),Bypass flow (lpm),Sample temperature (°C),Ambient temperature (°C),ASC tube jacket temperature (°C),LED temperature (°C),Box temperature (°C),Sample RH (%),Span deviation,Mass concentration (μg/m³),Mass concentration (μg/m³),Mass concentration (μg/m³)
DateTimeUTC,F1_M11,P_M11,Q1_M11,Q2_M11,T1_M11,T2_M11,T3_M11,T4_M11,T5_M11,U1_M11,ZSPAN_M11,X2_M11,X0_M11,X1_M11
2022-04-10 11:00:00,,0814.7,4.99,0.00,24.0,22.8,00.0,33.3,25.6,20.6,0000.0,0003.85,0008.43,0002.36
2022-04-10 11:01:00,,0814.7,5.01,0.00,23.9,22.7,00.0,33.3,25.5,20.6,0000.0,0003.88,0008.60,0002.38
2022-04-10 11:02:00,,0814.8,5.00,0.00,23.9,22.7,00.0,33.3,25.5,20.6,0000.0,0003.93,0008.74,0002.43
2022-04-10 11:03:00,,0814.9,4.99,0.00,23.9,22.7,00.0,33.2,25.5,20.7,0000.0,0003.96,0008.85,0002.48
2022-04-10 11:04:00,,0814.9,5.00,0.00,23.8,22.7,00.0,33.2,25.5,20.8,0000.0,0003.97,0008.87,0002.50
2022-04-10 11:05:00,,0814.8,5.00,0.00,23.8,22.7,00.0,33.2,25.4,20.8,0000.0,0003.98,0008.77,0002.53
2022-04-10 11:06:00,,0814.8,4.99,0.00,23.8,22.7,00.0,33.1,25.4,20.8,0000.0,0004.01,0008.80,0002.58
2022-04-10 11:07:00,,0814.8,5.00,0.00,23.7,22.6,00.0,33.1,25.4,20.8,0000.0,0004.05,0008.96,0002.61
2022-04-10 11:08:00,,0814.9,5.02,0.00,23.7,22.6,00.0,33.0,25.3,20.9,0000.0,0004.11,0009.05,0002.66
2022-04-10 11:09:00,,0814.9,4.99,0.00,23.7,22.5,00.0,33.0,25.2,21.1,0000.0,0004.08,0008.91,0002.67
2022-04-10 11:10:00,,0814.9,4.99,0.00,23.6,22.6,00.0,33.0,25.2,21.2,0000.0,0004.01,0008.70,0002.68
2022-04-10 11:11:00,,0814.9,5.00,0.00,23.6,22.5,00.0,33.0,25.2,21.3,0000.0,0003.98,0008.65,0002.70
2022-04-10 11:12:00,,0814.9,5.01,0.00,23.6,22.5,00.0,32.9,25.2,21.4,0000.0,0003.98,0008.53,0002.72
2022-04-10 11:13:00,,0814.9,5.00,0.00,23.5,22.4,00.0,32.9,25.1,21.4,0000.0,0003.99,0008.42,0002.73
2022-04-10 11:14:00,,0814.9,5.00,0.00,23.5,22.4,00.0,32.9,25.1,21.5,0000.0,0004.05,0008.55,0002.74
2022-04-10 11:15:00,,0814.8,4.99,0.00,23.5,22.3,00.0,32.8,25.1,21.5,0000.0,0004.08,0008.50,0002.75
2022-04-10 11:16:00,,0814.9,5.00,0.00,23.5,22.3,00.0,32.8,25.0,21.6,0000.0,0004.05,0008.41,0002.77
2022-04-10 11:17:00,,0814.9,4.99,0.00,23.4,22.3,00.0,32.8,25.0,21.7,0000.0,0004.07,0008.44,0002.77
2022-04-10 11:18:00,,0814.9,5.02,0.00,23.4,22.2,00.0,32.7,25.0,21.7,0000.0,0004.05,0008.31,0002.77
2022-04-10 11:19:00,,0814.9,5.00,0.00,23.3,22.2,00.0,32.7,25.0,21.8,0000.0,0003.97,0008.07,0002.75
2022-04-10 11:20:00,,0814.9,5.01,0.00,23.3,22.2,00.0,32.7,24.9,21.9,0000.0,0004.00,0008.19,0002.75
2022-04-10 11:21:00,,0814.8,4.99,0.00,23.3,22.1,00.0,32.6,24.9,21.9,0000.0,0004.03,0008.29,0002.75
2022-04-10 11:22:00,,0815.0,5.02,0.00,23.3,22.1,00.0,32.6,24.9,22.0,0000.0,0004.01,0008.18,0002.75
2022-04-10 11:23:00,,0814.9,5.00,0.00,23.2,22.2,00.0,32.6,24.9,22.1,0000.0,0003.99,0008.12,0002.75
2022-04-10 11:24:00,,0815.0,5.00,0.00,23.2,22.2,00.0,32.5,24.9,22.1,0000.0,0004.01,0008.30,0002.73
2022-04-10 11:25:00,,0814.9,5.00,0.00,23.2,22.2,00.0,32.5,24.9,22.1,0000.0,0003.96,0008.22,0002.72
2022-04-10 11:26:00,,0814.9,5.00,0.00,23.2,22.1,00.0,32.5,24.9,22.1,0000.0,0003.98,0008.25,0002.74
2022-04-10 11:27:00,,0815.0,4.99,0.00,23.2,22.0,00.0,32.5,24.9,22.0,0000.0,0004.00,0008.41,0002.74
2022-04-10 11:28:00,,0815.0,5.01,0.00,23.2,22.0,00.0,32.4,24.8,22.1,0000.0,0003.94,0008.31,0002.74
2022-04-10 11:29:00,,0814.9,4.99,0.00,23.1,22.0,00.0,32.4,24.8,22.0,0000.0,0003.98,0008.48,0002.73
2022-04-10 11:30:00,,0814.9,5.00,0.00,23.1,22.0,00.0,32.4,24.8,22.1,0000.0,0004.00,0008.61,0002.72
2022-04-10 11:31:00,,0814.9,5.01,0.00,23.1,21.9,00.0,32.4,24.8,22.0,0000.0,0004.00,0008.56,0002.74
2022-04-10 11:32:00,,0814.8,4.98,0.00,23.1,21.8,00.0,32.4,24.8,22.0,0000.0,0004.00,0008.53,0002.74
2022-04-10 11:33:00,,0814.9,5.00,0.00,23.1,21.8,00.0,32.3,24.7,22.0,0000.0,0004.03,0008.60,0002.75
2022-04-10 11:34:00,,0814.9,5.01,0.00,23.0,21.9,00.0,32.3,24.7,21.9,0000.0,0004.14,0008.91,0002.78
2022-04-10 11:35:00,,0814.9,4.99,0.00,23.0,21.9,00.0,32.3,24.7,22.0,0000.0,0004.13,0008.81,0002.81
2022-04-10 11:36:00,,0814.8,4.99,0.00,23.0,21.8,00.0,32.3,24.6,22.0,0000.0,0004.07,0008.64,0002.80
2022-04-10 11:37:00,,0814.8,5.02,0.00,22.9,21.8,00.0,32.2,24.6,22.0,0000.0,0004.03,0008.56,0002.77
2022-04-10 11:38:00,,0814.7,5.00,0.00,22.9,21.7,00.0,32.2,24.6,22.1,0000.0,0003.95,0008.24,0002.74
2022-04-10 11:39:00,,0814.7,5.00,0.00,22.9,21.7,00.0,32.2,24.5,22.2,0000.0,0004.00,0008.32,0002.71
2022-04-10 11:40:00,,0814.8,5.00,0.00,22.9,21.7,00.0,32.2,24.5,22.2,0000.0,0004.00,0008.36,0002.69
2022-04-10 11:41:00,,0814.7,5.00,0.00,22.8,21.6,00.0,32.1,24.4,22.3,0000.0,0003.98,0008.29,0002.68
2022-04-10 11:42:00,,0814.6,5.00,0.00,22.8,21.6,00.0,32.1,24.4,22.4,0000.0,0003.92,0008.18,0002.66
2022-04-10 11:43:00,,0814.7,5.00,0.00,22.7,21.6,00.0,32.0,24.4,22.5,0000.0,0003.90,0008.15,0002.66
2022-04-10 11:44:00,,0814.8,5.01,0.00,22.7,21.6,00.0,32.0,24.3,22.5,0000.0,0003.98,0008.51,0002.63
2022-04-10 11:45:00,,0814.8,5.00,0.00,22.7,21.6,00.0,32.0,24.3,22.5,0000.0,0003.90,0009.10,0002.59
2022-04-10 11:46:00,,0814.8,4.99,0.00,22.7,21.6,00.0,32.0,24.3,22.6,0000.0,0003.89,0009.28,0002.56
2022-04-10 11:47:00,,0814.8,5.00,0.00,22.6,21.6,00.0,31.9,24.3,22.6,0000.0,0003.92,0009.37,0002.55
2022-04-10 11:48:00,,0814.8,4.99,0.00,22.6,21.6,00.0,31.9,24.3,22.6,0000.0,0003.96,0009.46,0002.55
2022-04-10 11:49:00,,0814.8,5.00,0.00,22.6,21.5,00.0,31.9,24.2,22.7,0000.0,0004.01,0009.58,0002.56
2022-04-10 11:50:00,,0814.8,5.01,0.00,22.6,21.5,00.0,31.9,24.2,22.8,0000.0,0003.97,0009.54,0002.56
2022-04-10 11:51:00,,0814.8,4.99,0.00,22.5,21.5,00.0,31.8,24.2,22.8,0000.0,0003.98,0009.62,0002.56
2022-04-10 11:52:00,,0814.8,5.00,0.00,22.5,21.4,00.0,31.8,24.2,22.8,0000.0,0004.04,0010.30,0002.59
2022-04-10 11:53:00,,0814.8,5.00,0.00,22.5,21.4,00.0,31.8,24.2,22.7,0000.0,0004.10,0010.37,0002.58
2022-04-10 11:54:00,,0814.9,5.00,0.00,22.5,21.4,00.0,31.8,24.2,22.7,0000.0,0004.15,0010.68,0002.58
2022-04-10 11:55:00,,0814.9,5.01,0.00,22.5,21.4,00.0,31.7,24.1,22.7,0000.0,0004.10,0010.69,0002.59
2022-04-10 11:56:00,,0814.9,5.01,0.00,22.5,21.4,00.0,31.7,24.1,22.7,0000.0,0004.10,0010.07,0002.59
2022-04-10 11:57:00,,0814.9,5.00,0.00,22.5,21.4,00.0,31.7,24.2,22.7,0000.0,0004.14,0009.91,0002.58
2022-04-10 11:58:00,,0815.0,4.99,0.00,22.5,21.5,00.0,31.7,24.2,22.7,0000.0,0004.19,0010.11,0002.58
2022-04-10 11:59:00,,0815.0,4.99,0.00,22.5,21.6,00.0,31.7,24.2,22.6,0000.0,0004.13,0010.09,0002.58
